Flag for U.S.A. Weather past 2 weeks in Yonkers, New York, U.S.A.

Now
51 °F

Clear.


Feels Like: 49 °F
Forecast: 41 / 60 °F
Wind: 7 mph from North

Location: Teterboro Airport

Current Time: Apr 26, 2015 at 12:51:57 AM

Latest Report: Apr 25, 2015 at 11:51 PM


Visibility: 10 mi

Pressure: 29.69 "Hg

Humidity: 38%

Dew point: 26 °F

Location of YonkersLocation

Historic Weather in Yonkers — Graph

°F

Yonkers temperature yesterday

Maximum temperature yesterday: 59 °F (at 3:51 PM)
Minimum temperature yesterday: 36 °F (at 2:51 AM)
Average temperature yesterday: 48 °F

Past Weeks' High & Low Weather Summary

 TemperatureHumidityPressure
High80 °F (Apr 18, 4:51 PM)97% (Apr 20, 8:51 PM)30.48 "Hg (Apr 20, 8:51 PM)
Low35 °F (Apr 12, 5:51 AM)12% (Apr 15, 3:51 PM)29.50 "Hg (Apr 22, 2:51 PM)
Average55 °F49%29.99 "Hg
* Reported Apr 10 10:51 PM — Apr 25 10:51 PM, Yonkers, Weather by CustomWeather, © 2015

Note: Actual official high and low records may vary slightly from our data, if they occured in-between our weather recording intervals... More about our weather records

Advertising

Yonkers weather history for previous 24 hours

 ConditionsComfort  
Time TempWeatherWind HumidityBarometerVisibility
10:51 PM
Sat, Apr 25
52 °FClear.9 mph35%29.69 "Hg10 mi
9:51 PM54 °FClear.No wind30%29.69 "Hg10 mi
8:51 PM56 °FClear.6 mph26%29.69 "Hg10 mi
7:51 PM57 °FSunny.8 mph25%29.69 "Hg10 mi
6:51 PM59 °FSunny.7 mph22%29.67 "Hg10 mi
5:51 PM59 °FSunny.10 mph27%29.68 "Hg10 mi
4:51 PM59 °FSunny.6 mph25%29.68 "Hg10 mi
3:51 PM59 °FSunny.3 mph27%29.71 "Hg10 mi
2:51 PM57 °FSunny.7 mph31%29.75 "Hg10 mi
1:51 PM56 °FSunny.12 mph34%29.78 "Hg10 mi
12:51 PM53 °FSunny.12 mph37%29.81 "Hg10 mi
11:51 AM51 °FSunny.9 mph36%29.84 "Hg10 mi
10:51 AM48 °FSunny.13 mph39%29.86 "Hg10 mi
9:51 AM46 °FSunny.14 mph40%29.88 "Hg10 mi
8:51 AM43 °FSunny.12 mph45%29.89 "Hg10 mi
7:51 AM40 °FSunny.10 mph49%29.92 "Hg10 mi
6:51 AM37 °FClear.6 mph57%29.91 "Hg10 mi
5:51 AM36 °FClear.5 mph57%29.92 "Hg10 mi
4:51 AM36 °FClear.5 mph54%29.91 "Hg10 mi
3:51 AM36 °FClear.6 mph54%29.90 "Hg10 mi
2:51 AM36 °FClear.3 mph54%29.90 "Hg10 mi
1:51 AM37 °FClear.3 mph52%29.91 "Hg10 mi
12:51 AM38 °FClear.7 mph48%29.92 "Hg10 mi
Weather by CustomWeather, © 2015

See weather overviewHow to use our weather pages